Havre, MT

6:41 PM MDT on September 30, 2016 (GMT -0600)
Havre City-County

Weather History for KHVR - March, 2014

Change the Weather History Date:

Friday, March 7, 2014

  Actual Average Record
Temperature  
Mean Temperature 18 °F 29 °F  
Max Temperature 27 °F 40 °F 70 °F (1906)
Min Temperature 9 °F 17 °F -26 °F (1897)
Degree Days  
Heating Degree Days 47 36  
Month to date heating degree days 404 263  
Since 1 July heating degree days 6645 6383  
Cooling Degree Days 0 0  
Month to date cooling degree days 0 0  
Year to date cooling degree days 0 0  
Moisture  
Dew Point 8 °F    
Average Humidity 78    
Maximum Humidity 92    
Minimum Humidity 63    
Precipitation  
Precipitation T in 0.01 in 0.16 in (1888)
Month to date precipitation 0.26 0.09  
Year to date precipitation 0.92 0.70  
Snow  
Snow T in 0.20 in 1.00 in (1897)
Month to date snowfall 1.0 1.4  
Since 1 July snowfall 38.4 29.3  
Snow Depth 1.00 in    
Sea Level Pressure  
Sea Level Pressure 30.19 in    
Wind  
Wind Speed 6 mph (ENE)    
Max Wind Speed 15 mph    
Max Gust Speed 17 mph    
Visibility 9 miles    
Events Snow    
T = Trace of Precipitation, MM = Missing Value Source: NWS Daily Summary

Daily Weather History Graph

Daily Weather History Graph

Search for Another Location

Airport or City:

Trip Planner

Search our weather history database for the weather conditions in past years. The results will help you decide how hot, cold, wet, or windy it might be!

Date:

Astronomy

Mar. 07, 2014 Rise Set
Actual Time 6:48 AM MST 6:12 PM MST
Civil Twilight 6:17 AM MST 6:43 PM MST
Nautical Twilight 5:40 AM MST 7:20 PM MST
Astronomical Twilight 5:04 AM MST 7:56 PM MST
Moon 10:14 AM MST (3/7) 12:49 AM MST (3/7)
Length of Visible Light 12h 26m
Length of Day
11h 23m
Waxing Crescent, 42% of the Moon is Illuminated
Mar 7
Waxing Crescent
Mar 8
First Quarter
Mar 16
Full
Mar 23
Last Quarter
Mar 30
New

Hourly Weather History & Observations

Time (MST) Temp. Windchill Dew Point Humidity Pressure Visibility Wind Dir Wind Speed Gust Speed Precip Events Conditions
12:53 AM 10.0 °F -0.9 °F 1.9 °F 70% 30.21 in 10.0 mi NE 6.9 mph - N/A   Overcast
1:53 AM 9.0 °F -3.2 °F 1.0 °F 70% 30.21 in 10.0 mi East 8.1 mph - N/A   Overcast
2:53 AM 9.0 °F -3.2 °F 1.9 °F 73% 30.19 in 10.0 mi East 8.1 mph - N/A   Overcast
3:53 AM 10.0 °F -1.9 °F 3.0 °F 73% 30.19 in 10.0 mi East 8.1 mph - N/A   Overcast
4:53 AM 10.0 °F -1.9 °F 3.9 °F 76% 30.19 in 10.0 mi East 8.1 mph - N/A   Overcast
5:03 AM 10.0 °F -2.9 °F 3.9 °F 76% 30.04 in 10.0 mi East 9.2 mph - N/A   Overcast
5:53 AM 10.9 °F -4.1 °F 5.0 °F 77% 30.19 in 10.0 mi East 12.7 mph - N/A   Overcast
6:53 AM 10.9 °F -2.6 °F 6.1 °F 81% 30.20 in 10.0 mi East 10.4 mph - N/A   Overcast
7:53 AM 10.9 °F -1.8 °F 6.1 °F 81% 30.22 in 3.0 mi East 9.2 mph - 0.00 in Snow Light Snow
8:24 AM 10.9 °F -4.1 °F 6.1 °F 81% 30.06 in 2.5 mi East 12.7 mph - 0.00 in Snow Light Snow
8:36 AM 12.0 °F -1.3 °F 6.1 °F 77% 30.06 in 2.5 mi East 10.4 mph - 0.00 in Snow Light Snow
8:49 AM 12.2 °F -1.0 °F 6.8 °F 79% 30.06 in 3.0 mi East 10.4 mph - 0.00 in Snow Light Snow
8:53 AM 12.0 °F -0.4 °F 6.1 °F 77% 30.21 in 3.0 mi East 9.2 mph - 0.00 in Snow Light Snow
9:14 AM 12.9 °F 0.7 °F 7.0 °F 77% 30.05 in 7.0 mi East 9.2 mph - 0.00 in   Overcast
9:36 AM 14.0 °F 3.9 °F 7.0 °F 74% 30.06 in 10.0 mi East 6.9 mph - 0.00 in   Overcast
9:53 AM 14.0 °F 2.9 °F 8.1 °F 77% 30.21 in 10.0 mi East 8.1 mph - 0.00 in   Overcast
10:53 AM 17.1 °F 6.6 °F 10.0 °F 74% 30.20 in 10.0 mi East 8.1 mph - N/A   Scattered Clouds
11:53 AM 19.0 °F 9.0 °F 12.0 °F 74% 30.21 in 10.0 mi NE 8.1 mph - N/A   Clear
12:53 PM 21.0 °F 16.2 °F 12.9 °F 71% 30.21 in 10.0 mi NE 3.5 mph - N/A   Clear
1:53 PM 21.9 °F - 14.0 °F 72% 30.21 in 10.0 mi Calm Calm - N/A   Mostly Cloudy
2:53 PM 23.0 °F - 14.0 °F 68% 30.22 in 10.0 mi Calm Calm - N/A   Overcast
3:53 PM 27.0 °F 23.0 °F 15.1 °F 61% 30.24 in 10.0 mi North 3.5 mph - N/A   Scattered Clouds
4:53 PM 26.1 °F 21.9 °F 15.1 °F 63% 30.24 in 10.0 mi East 3.5 mph - N/A   Clear
5:53 PM 24.1 °F 19.7 °F 15.1 °F 69% 30.25 in 10.0 mi East 3.5 mph - N/A   Clear
6:53 PM 17.1 °F 10.0 °F 12.0 °F 81% 30.26 in 10.0 mi ESE 4.6 mph - N/A   Clear
7:53 PM 17.1 °F 7.6 °F 12.0 °F 81% 30.26 in 10.0 mi ENE 6.9 mph - N/A   Clear
8:53 PM 12.9 °F - 9.0 °F 84% 30.28 in 10.0 mi Calm Calm - N/A   Clear
9:53 PM 12.9 °F - 8.1 °F 81% 30.27 in 10.0 mi Calm Calm - N/A   Clear
10:53 PM 10.9 °F - 8.1 °F 88% 30.26 in 10.0 mi Calm Calm - N/A   Clear
11:53 PM 9.0 °F -0.9 °F 6.1 °F 88% 30.25 in 9.0 mi ESE 5.8 mph - N/A   Clear